Guthrie, OK

1:26 PM CST on February 23, 2017 (GMT -0600)
Guthrie Municipal

Weather History for KGOK - April, 2014

Change the Weather History Date:

Sunday, April 13, 2014

  Actual Average Record
Temperature  
Mean Temperature 64 °F -  
Max Temperature 88 °F 72 °F 93 °F (1972)
Min Temperature 41 °F 48 °F 22 °F (1957)
Degree Days  
Heating Degree Days 1    
Growing Degree Days 14 (Base 50)    
Moisture  
Dew Point 54 °F    
Average Humidity 62    
Maximum Humidity 73    
Minimum Humidity 34    
Precipitation  
Precipitation 0.35 in - - ()
Sea Level Pressure  
Sea Level Pressure 29.55 in    
Wind  
Wind Speed 21 mph (SW)    
Max Wind Speed 29 mph    
Max Gust Speed 45 mph    
Visibility 8 miles    
Events Rain , Thunderstorm    
Averages and records for this station are not official NWS values.
T = Trace of Precipitation, MM = Missing Value Source: NWS Daily Summary

Daily Weather History Graph

Daily Weather History Graph

Search for Another Location

Airport or City:

Trip Planner

Search our weather history database for the weather conditions in past years. The results will help you decide how hot, cold, wet, or windy it might be!

Date:

Astronomy

Apr. 13, 2014 Rise Set
Actual Time 6:59 AM CDT 8:01 PM CDT
Civil Twilight 6:33 AM CDT 8:27 PM CDT
Nautical Twilight 6:01 AM CDT 8:59 PM CDT
Astronomical Twilight 5:29 AM CDT 9:31 PM CDT
Moon 6:43 PM CDT (4/13) 5:55 AM CDT (4/13)
Length of Visible Light 13h 54m
Length of Day
13h 02m
Waxing Gibbous, 97% of the Moon is Illuminated
Apr 13
Waxing Gibbous
Apr 15
Full
Apr 22
Last Quarter
Apr 29
New
May 6
First Quarter

Hourly Weather History & Observations

Time (CDT) Temp. Windchill Dew Point Humidity Pressure Visibility Wind Dir Wind Speed Gust Speed Precip Events Conditions
12:53 AM 75.0 °F - 60.1 °F 60% 29.56 in 10.0 mi South 23.0 mph 29.9 mph N/A   Clear
1:53 AM 75.0 °F - 60.1 °F 60% 29.55 in 10.0 mi South 26.5 mph 34.5 mph 0.00 in   Clear
2:53 AM 73.9 °F - 60.1 °F 62% 29.53 in 9.0 mi South 26.5 mph 35.7 mph N/A   Clear
3:53 AM 73.0 °F - 61.0 °F 66% 29.53 in 9.0 mi South 21.9 mph 29.9 mph N/A   Clear
4:53 AM 72.0 °F - 61.0 °F 68% 29.53 in 9.0 mi South 23.0 mph 33.4 mph N/A   Clear
5:53 AM 72.0 °F - 61.0 °F 68% 29.51 in 9.0 mi South 24.2 mph 33.4 mph N/A   Partly Cloudy
6:53 AM 71.1 °F - 61.0 °F 70% 29.49 in 9.0 mi South 20.7 mph 36.8 mph N/A   Clear
7:53 AM 72.0 °F - 60.1 °F 66% 29.51 in 10.0 mi South 24.2 mph 35.7 mph N/A   Clear
8:53 AM 71.1 °F - 62.1 °F 73% 29.52 in 8.0 mi South 24.2 mph 34.5 mph N/A   Partly Cloudy
9:30 AM 73.4 °F - 62.6 °F 69% 29.54 in 8.0 mi South 27.6 mph 38.0 mph N/A   Mostly Cloudy
9:45 AM 73.4 °F - 62.6 °F 69% 29.53 in 8.0 mi South 24.2 mph 33.4 mph N/A   Scattered Clouds
9:53 AM 75.0 °F - 62.1 °F 64% 29.51 in 8.0 mi South 24.2 mph 35.7 mph N/A   Scattered Clouds
10:53 AM 75.0 °F - 61.0 °F 62% 29.50 in 8.0 mi South 27.6 mph 44.9 mph N/A   Mostly Cloudy
11:26 AM 75.2 °F - 60.8 °F 61% 29.53 in 9.0 mi South 21.9 mph 33.4 mph N/A   Mostly Cloudy
11:53 AM 79.0 °F - 61.0 °F 54% 29.49 in 8.0 mi South 28.8 mph 39.1 mph N/A   Mostly Cloudy
12:53 PM 82.0 °F - 60.1 °F 47% 29.44 in 9.0 mi SSW 26.5 mph 43.7 mph N/A   Scattered Clouds
1:53 PM 86.0 °F - 57.9 °F 38% 29.42 in 9.0 mi SSW 24.2 mph 40.3 mph N/A   Partly Cloudy
2:53 PM 79.0 °F - 60.1 °F 52% 29.35 in 5.0 mi South 24.2 mph 40.3 mph 0.00 in Rain , Thunderstorm Light Thunderstorms and Rain
3:18 PM 78.8 °F - 48.2 °F 34% 29.42 in 8.0 mi NW 10.4 mph 26.5 mph 0.01 in Thunderstorm Thunderstorm
3:22 PM 73.4 °F - 53.6 °F 50% 29.44 in 1.8 mi NW 15.0 mph 20.7 mph 0.08 in Rain , Thunderstorm Heavy Thunderstorms and Rain
3:32 PM 66.2 °F - 57.2 °F 73% 29.46 in 0.8 mi NNE 9.2 mph 18.4 mph 0.30 in Rain , Thunderstorm Heavy Thunderstorms and Rain
3:40 PM 66.2 °F - 57.2 °F 73% 29.49 in 2.0 mi North 8.1 mph 19.6 mph 0.35 in Rain , Thunderstorm Light Thunderstorms and Rain
3:49 PM 68.0 °F - 57.2 °F 68% 29.51 in 7.0 mi NNW 11.5 mph 23.0 mph 0.35 in Thunderstorm Thunderstorm
3:53 PM 68.0 °F - 55.0 °F 63% 29.47 in 6.0 mi North 12.7 mph 26.5 mph 0.35 in Thunderstorm Unknown
4:20 PM 68.0 °F - 51.8 °F 56% 29.51 in 7.0 mi NNW 18.4 mph 28.8 mph N/A   Clear
4:53 PM 70.0 °F - 51.1 °F 51% 29.54 in 8.0 mi NNW 10.4 mph 23.0 mph N/A   Clear
5:53 PM 62.1 °F - 46.9 °F 58% 29.58 in 8.0 mi NNW 18.4 mph 34.5 mph N/A   Scattered Clouds
6:25 PM 57.2 °F - 44.6 °F 63% 29.65 in 8.0 mi NNW 13.8 mph 29.9 mph N/A   Overcast
7:53 PM 51.1 °F - 42.1 °F 71% 29.73 in 10.0 mi NNW 8.1 mph 21.9 mph N/A   Overcast
8:53 PM 46.9 °F - 37.9 °F 71% 29.78 in 10.0 mi North 12.7 mph 25.3 mph N/A   Overcast
9:53 PM 44.1 °F 37.4 °F 35.1 °F 71% 29.81 in 10.0 mi NNW 13.8 mph 25.3 mph N/A   Overcast
10:53 PM 42.1 °F 35.2 °F 32.0 °F 67% 29.85 in 10.0 mi North 12.7 mph 24.2 mph N/A   Overcast
11:53 PM 41.0 °F 33.1 °F 32.0 °F 70% 29.88 in 10.0 mi North 15.0 mph 26.5 mph N/A   Overcast